MDT3 KDCA-ENGM

Flight info

Callsign MDT3
Flight time N/A
Altitude 35000
Route DOCTR5 DQO DCT PNGWN Q34 RBV Q22 FOXWD Q439 BEEKN Q480 ENE Q822 ALLEX N631B RIKAL/M080F370 DCT 54N047W 57N039W 59N030W 60N020W DCT RATSU/N0455F370 DCT OSBON/M080F370 DCT VALDI/N0394F190 N623 FLS/N0362F130 L24 ADOPI
Aircraft CL60/M-SBDE1E2E3FGHIJ1J4J5J7M3RWXYZ/LB1V1D1

Departure

Time N/A
Airport Ronald Reagan Washington National Airport (KDCA)

Arrival

Time 2026-04-30 08:03
Airport Oslo-Gardermoen International Airport (ENGM)
Time Latitude Longitude Altitude Speed Heading
2026-04-30 07:45 60.35536 8.68941 25785 ft 383 kts 93°
2026-04-30 07:46 60.35306 8.74225 25282 ft 381 kts 93°
2026-04-30 07:46 60.35072 8.79523 24784 ft 378 kts 93°
2026-04-30 07:46 60.34840 8.84754 24285 ft 375 kts 93°
2026-04-30 07:46 60.34604 8.90018 23790 ft 372 kts 92°
2026-04-30 07:47 60.34372 8.95168 23299 ft 370 kts 92°
2026-04-30 07:47 60.34140 9.00281 22831 ft 366 kts 92°
2026-04-30 07:47 60.34105 9.05341 22348 ft 359 kts 83°
2026-04-30 07:47 60.34314 9.10363 21864 ft 355 kts 82°
2026-04-30 07:48 60.34493 9.15287 21391 ft 352 kts 83°
2026-04-30 07:48 60.34631 9.20181 20924 ft 349 kts 83°
2026-04-30 07:48 60.34774 9.25042 20460 ft 345 kts 83°
2026-04-30 07:48 60.34925 9.29890 19993 ft 344 kts 83°
2026-04-30 07:49 60.35074 9.34636 19536 ft 343 kts 83°
2026-04-30 07:49 60.35218 9.39417 19075 ft 341 kts 83°
2026-04-30 07:49 60.35356 9.44148 18633 ft 338 kts 83°
2026-04-30 07:49 60.35489 9.48848 18186 ft 335 kts 83°
2026-04-30 07:50 60.35620 9.53531 17750 ft 333 kts 83°
2026-04-30 07:50 60.35752 9.58203 17313 ft 331 kts 83°
2026-04-30 07:50 60.35882 9.62826 16884 ft 328 kts 83°
2026-04-30 07:50 60.36008 9.67361 16458 ft 326 kts 84°
2026-04-30 07:51 60.36131 9.71907 16037 ft 324 kts 84°
2026-04-30 07:51 60.36253 9.76468 15620 ft 322 kts 84°
2026-04-30 07:51 60.36369 9.80948 15205 ft 320 kts 84°
2026-04-30 07:51 60.36485 9.85411 14785 ft 318 kts 84°
2026-04-30 07:52 60.36597 9.89813 14362 ft 316 kts 84°
2026-04-30 07:52 60.36710 9.94244 13927 ft 314 kts 84°
2026-04-30 07:52 60.36822 9.98673 13489 ft 312 kts 84°
2026-04-30 07:52 60.36929 10.03009 13077 ft 310 kts 84°
2026-04-30 07:53 60.37035 10.07342 12674 ft 308 kts 84°
2026-04-30 07:53 60.37138 10.11620 12266 ft 306 kts 84°
2026-04-30 07:53 60.37238 10.15895 11866 ft 305 kts 84°
2026-04-30 07:53 60.37338 10.20150 11469 ft 303 kts 84°
2026-04-30 07:54 60.37434 10.24336 11084 ft 301 kts 84°
2026-04-30 07:54 60.37529 10.28530 10696 ft 299 kts 85°
2026-04-30 07:54 60.37625 10.32763 10301 ft 298 kts 85°
2026-04-30 07:54 60.37717 10.36886 9916 ft 297 kts 85°
2026-04-30 07:55 60.37808 10.41050 9523 ft 296 kts 85°
2026-04-30 07:55 60.37896 10.45153 9130 ft 294 kts 85°
2026-04-30 07:55 60.37984 10.49264 8742 ft 293 kts 85°
2026-04-30 07:55 60.38069 10.53386 8349 ft 290 kts 85°
2026-04-30 07:56 60.38152 10.57427 7962 ft 286 kts 85°
2026-04-30 07:56 60.38231 10.61371 7545 ft 282 kts 86°
2026-04-30 07:56 60.38309 10.65315 7094 ft 277 kts 87°
2026-04-30 07:56 60.38385 10.69173 6650 ft 272 kts 87°
2026-04-30 07:57 60.38458 10.72908 6201 ft 268 kts 87°
2026-04-30 07:57 60.38530 10.76675 5738 ft 265 kts 87°
2026-04-30 07:57 60.38600 10.80358 5286 ft 261 kts 88°
2026-04-30 07:57 60.38667 10.83932 5014 ft 250 kts 88°
2026-04-30 07:58 60.38711 10.87322 5052 ft 237 kts 91°
2026-04-30 07:58 60.38570 10.90640 5047 ft 242 kts 97°
2026-04-30 07:58 60.38347 10.94038 4945 ft 242 kts 99°
2026-04-30 07:58 60.37921 10.97249 4595 ft 231 kts 111°
2026-04-30 07:59 60.37188 11.00056 4363 ft 227 kts 124°
2026-04-30 07:59 60.36208 11.02538 3980 ft 227 kts 134°
2026-04-30 07:59 60.35064 11.04630 3567 ft 223 kts 141°
2026-04-30 08:00 60.32751 11.08457 2773 ft 209 kts 140°
2026-04-30 08:00 60.31671 11.10300 2613 ft 194 kts 141°
2026-04-30 08:00 60.30563 11.11774 2210 ft 190 kts 154°
2026-04-30 08:00 60.29416 11.12505 2273 ft 157 kts 171°
2026-04-30 08:01 60.28371 11.12663 2029 ft 149 kts 181°
2026-04-30 08:01 60.27388 11.12469 1818 ft 127 kts 191°
2026-04-30 08:01 60.26550 11.11994 1774 ft 129 kts 196°
2026-04-30 08:01 60.25691 11.11471 1477 ft 124 kts 195°
2026-04-30 08:02 60.24059 11.10566 1205 ft 124 kts 195°
2026-04-30 08:02 60.23233 11.10100 1026 ft 122 kts 195°
2026-04-30 08:03 60.21608 11.09167 735 ft 121 kts 197°
2026-04-30 08:03 60.20370 11.08452 684 ft 37 kts 195°
2026-04-30 08:03 60.20305 11.08228 686 ft 21 kts 285°
2026-04-30 08:04 60.20338 11.07938 686 ft 18 kts 256°
2026-04-30 08:04 60.20228 11.07832 684 ft 21 kts 196°
2026-04-30 08:04 60.20091 11.07768 685 ft 12 kts 173°
2026-04-30 08:04 60.20054 11.07670 684 ft 8 kts 264°
2026-04-30 08:05 60.20054 11.07664 684 ft 0 kts 264°